^^
Jimboomba-Weather Station Historical Data
 
Daily Summary for March 03, 2024 Units:  Metric    English   Both
Daily Weekly Monthly Yearly
  Current: High: Low: Average:
Temperature: 22.4 °C 24 °C 22.4 °C 23.2 °C
Dew Point: 20.2 °C 21.1 °C 20.2 °C 20.7 °C
Humidity: 87% 87% 83% 86%
Wind Speed: 0km/h 0km/h 0km/h 0km/h
Wind Gust: 0km/h 0km/h - -
WindCalm - - North
Pressure: 1011.9 hPa 1013.6 hPa 1011.9 hPa -
Precipitation: 0.0 mm      
 
 
Tabular Data for March 03, 2024
Time Temperature Dew Point Pressure Wind Wind Speed Wind Gust Humidity Rainfall Rate (Hourly) solar
00:15 24 °C 20.9 °C 1013.6 hPa Calm     83% 0.0 mm W/m2
00:30 23.8 °C 20.7 °C 1013.4 hPa Calm     83% 0.0 mm W/m2
00:45 23.7 °C 20.8 °C 1012.9 hPa Calm     84% 0.0 mm W/m2
01:00 23.6 °C 20.7 °C 1012.9 hPa Calm     84% 0.0 mm W/m2
01:15 23.3 °C 20.7 °C 1012.8 hPa Calm     85% 0.0 mm W/m2
01:30 23.2 °C 20.5 °C 1013.0 hPa Calm     85% 0.0 mm W/m2
01:45 23.2 °C 20.7 °C 1012.8 hPa Calm     86% 0.0 mm W/m2
02:00 23.3 °C 20.8 °C 1012.8 hPa Calm     86% 0.0 mm W/m2
02:15 23.3 °C 20.8 °C 1012.8 hPa Calm     86% 0.0 mm W/m2
02:30 23.3 °C 21.1 °C 1012.8 hPa Calm     87% 0.0 mm W/m2
02:45 23.3 °C 21.1 °C 1012.5 hPa Calm     87% 0.0 mm W/m2
03:00 23.3 °C 21 °C 1012.7 hPa Calm     87% 0.0 mm W/m2
03:15 23.3 °C 21 °C 1012.5 hPa Calm     87% 0.0 mm W/m2
03:30 23.1 °C 20.8 °C 1012.6 hPa Calm     87% 0.0 mm W/m2
03:45 22.9 °C 20.7 °C 1012.5 hPa Calm     87% 0.0 mm W/m2
04:00 22.9 °C 20.4 °C 1012.5 hPa Calm     86% 0.0 mm W/m2
04:15 22.9 °C 20.6 °C 1012.2 hPa Calm     87% 0.0 mm W/m2
04:30 22.8 °C 20.5 °C 1012.4 hPa Calm     87% 0.0 mm W/m2
04:45 22.7 °C 20.4 °C 1012.4 hPa Calm     87% 0.0 mm W/m2
05:00 22.6 °C 20.3 °C 1012.0 hPa Calm     87% 0.0 mm W/m2
05:15 22.4 °C 20.2 °C 1011.9 hPa Calm     87% 0.0 mm W/m2
Compliments of Weather Underground - 2 mb